When you browse on this site, cookies collect data to enhance your experience and personalize the content and advertising you see.
Visit our Privacy Policy to learn more. By continuing to use the site, you agree to this use of cookies and data.
  • In United Kingdom
  • List of Countries
  • For 7 days
  • Water Temperature
  • Satellite Maps
  • Weather Map
  • Weather Widgets
  • user-avatar
    Login

    Hourly Weather Shusha

    Today, 24 April, Wednesday

    Time Temperature Precipitation Wind Pressure Humidity
    00:00 +1°C° 0 mm 1 mps 663 mmHg 76%
    01:00 +1°C° 0 mm 1 mps 663 mmHg 75%
    02:00 +1°C° 0 mm 1 mps 663 mmHg 74%
    03:00 +1°C° 0 mm 2 mps 663 mmHg 72%
    04:00 +2°C° 0.1 mm 2 mps 664 mmHg 73%
    05:00 +3°C° 0.1 mm 1 mps 664 mmHg 74%
    06:00 +3°C° 0.1 mm 1 mps 665 mmHg 75%
    07:00 +4°C° 0 mm 1 mps 665 mmHg 71%
    08:00 +6°C° 0 mm 1 mps 665 mmHg 67%
    09:00 +6°C° 0 mm 2 mps 665 mmHg 62%
    10:00 +7°C° 0.1 mm 2 mps 665 mmHg 61%
    11:00 +7°C° 0.1 mm 2 mps 665 mmHg 60%
    12:00 +8°C° 0.1 mm 3 mps 665 mmHg 59%
    13:00 +8°C° 0.2 mm 3 mps 665 mmHg 59%
    14:00 +9°C° 0.2 mm 3 mps 664 mmHg 58%
    15:00 +9°C° 0.2 mm 3 mps 664 mmHg 57%
    16:00 +8°C° 0 mm 2 mps 664 mmHg 61%
    17:00 +7°C° 0 mm 2 mps 663 mmHg 65%
    18:00 +7°C° 0 mm 2 mps 663 mmHg 68%
    19:00 +6°C° 0 mm 2 mps 663 mmHg 70%
    20:00 +5°C° 0 mm 1 mps 663 mmHg 72%
    21:00 +4°C° 0 mm 1 mps 663 mmHg 74%
    22:00 +4°C° 0 mm 1 mps 663 mmHg 72%
    23:00 +4°C° 0 mm 1 mps 663 mmHg 70%

    Tomorrow, 25 April, Thursday

    Time Temperature Precipitation Wind Pressure Humidity
    00:00 +4°C° 0 mm 1 mps 663 mmHg 69%
    01:00 +4°C° 0 mm 1 mps 663 mmHg 69%
    02:00 +4°C° 0 mm 1 mps 663 mmHg 69%
    03:00 +4°C° 0 mm 1 mps 663 mmHg 70%
    04:00 +4°C° 0 mm 1 mps 664 mmHg 71%
    05:00 +4°C° 0 mm 1 mps 664 mmHg 73%
    06:00 +5°C° 0 mm 1 mps 664 mmHg 74%
    07:00 +6°C° 0.1 mm 1 mps 665 mmHg 71%
    08:00 +7°C° 0.1 mm 1 mps 665 mmHg 68%
    09:00 +8°C° 0.1 mm 1 mps 665 mmHg 65%
    10:00 +8°C° 0.2 mm 2 mps 665 mmHg 63%
    11:00 +9°C° 0.2 mm 2 mps 665 mmHg 62%
    12:00 +9°C° 0.2 mm 2 mps 665 mmHg 61%
    13:00 +10°C° 0.4 mm 2 mps 665 mmHg 61%
    14:00 +10°C° 0.4 mm 2 mps 664 mmHg 61%
    15:00 +10°C° 0.4 mm 2 mps 664 mmHg 61%
    16:00 +9°C° 0.5 mm 2 mps 664 mmHg 66%
    17:00 +9°C° 0.5 mm 2 mps 664 mmHg 70%
    18:00 +9°C° 0.5 mm 1 mps 664 mmHg 75%
    19:00 +8°C° 0.2 mm 1 mps 664 mmHg 77%
    20:00 +7°C° 0.2 mm 1 mps 664 mmHg 79%
    21:00 +6°C° 0.2 mm 1 mps 664 mmHg 81%
    22:00 +6°C° 0 mm 1 mps 664 mmHg 81%
    23:00 +5°C° 0 mm 1 mps 664 mmHg 81%

    Day after tomorrow, 26 April, Friday

    Time Temperature Precipitation Wind Pressure Humidity
    00:00 +5°C° 0 mm 1 mps 664 mmHg 81%
    01:00 +4°C° 0 mm 1 mps 664 mmHg 80%
    02:00 +3°C° 0 mm 2 mps 664 mmHg 79%
    03:00 +3°C° 0 mm 2 mps 664 mmHg 79%
    04:00 +3°C° 0 mm 2 mps 664 mmHg 78%
    05:00 +3°C° 0 mm 2 mps 664 mmHg 76%
    06:00 +4°C° 0 mm 2 mps 664 mmHg 75%
    07:00 +5°C° 0 mm 2 mps 664 mmHg 70%
    08:00 +7°C° 0 mm 2 mps 665 mmHg 64%
    09:00 +10°C° 0 mm 1 mps 665 mmHg 59%
    10:00 +9°C° 0 mm 2 mps 665 mmHg 57%
    11:00 +10°C° 0 mm 2 mps 665 mmHg 56%
    12:00 +12°C° 0 mm 2 mps 664 mmHg 54%
    13:00 +12°C° 0 mm 2 mps 664 mmHg 54%
    14:00 +12°C° 0 mm 2 mps 664 mmHg 54%
    15:00 +12°C° 0 mm 2 mps 663 mmHg 54%
    16:00 +12°C° 0 mm 2 mps 663 mmHg 58%
    17:00 +10°C° 0 mm 2 mps 663 mmHg 62%
    18:00 +9°C° 0 mm 2 mps 662 mmHg 66%
    19:00 +9°C° 0 mm 1 mps 662 mmHg 69%
    20:00 +7°C° 0 mm 1 mps 663 mmHg 72%
    21:00 +6°C° 0 mm 1 mps 663 mmHg 76%
    22:00 +6°C° 0 mm 1 mps 663 mmHg 75%
    23:00 +5°C° 0 mm 2 mps 662 mmHg 75%

    27 April, Saturday

    Time Temperature Precipitation Wind Pressure Humidity
    00:00 +4°C° 0 mm 2 mps 662 mmHg 75%
    01:00 +4°C° 0 mm 2 mps 662 mmHg 75%
    02:00 +4°C° 0 mm 2 mps 662 mmHg 75%
    03:00 +3°C° 0 mm 2 mps 662 mmHg 75%
    04:00 +4°C° 0 mm 2 mps 662 mmHg 74%
    05:00 +5°C° 0 mm 1 mps 662 mmHg 72%
    06:00 +6°C° 0 mm 1 mps 662 mmHg 71%
    07:00 +8°C° 0 mm 1 mps 663 mmHg 64%
    08:00 +8°C° 0 mm 2 mps 663 mmHg 57%
    09:00 +10°C° 0 mm 2 mps 663 mmHg 50%
    10:00 +12°C° 0 mm 2 mps 663 mmHg 49%
    11:00 +12°C° 0 mm 3 mps 663 mmHg 47%
    12:00 +13°C° 0 mm 3 mps 663 mmHg 45%
    13:00 +13°C° 0 mm 3 mps 662 mmHg 46%
    14:00 +13°C° 0 mm 3 mps 662 mmHg 47%
    15:00 +13°C° 0 mm 3 mps 661 mmHg 47%
    16:00 +13°C° 0 mm 2 mps 661 mmHg 53%
    17:00 +12°C° 0 mm 2 mps 661 mmHg 58%
    18:00 +10°C° 0 mm 2 mps 661 mmHg 63%
    19:00 +9°C° 0 mm 2 mps 661 mmHg 68%
    20:00 +8°C° 0 mm 1 mps 660 mmHg 72%
    21:00 +7°C° 0 mm 1 mps 660 mmHg 77%
    22:00 +7°C° 0 mm 1 mps 660 mmHg 75%
    23:00 +7°C° 0 mm 1 mps 660 mmHg 73%

    28 April, Sunday

    Time Temperature Precipitation Wind Pressure Humidity
    00:00 +6°C° 0 mm 1 mps 660 mmHg 71%
    01:00 +5°C° 0 mm 2 mps 659 mmHg 68%
    02:00 +5°C° 0 mm 2 mps 659 mmHg 65%
    03:00 +5°C° 0 mm 2 mps 659 mmHg 62%
    04:00 +5°C° 0 mm 2 mps 659 mmHg 61%
    05:00 +6°C° 0 mm 2 mps 659 mmHg 59%
    06:00 +7°C° 0 mm 1 mps 659 mmHg 58%
    07:00 +8°C° 0 mm 2 mps 659 mmHg 55%
    08:00 +10°C° 0 mm 2 mps 659 mmHg 51%
    09:00 +13°C° 0 mm 2 mps 660 mmHg 48%
    10:00 +14°C° 0 mm 2 mps 660 mmHg 47%
    11:00 +16°C° 0 mm 2 mps 659 mmHg 46%
    12:00 +17°C° 0 mm 2 mps 659 mmHg 45%
    13:00 +17°C° 0 mm 2 mps 659 mmHg 46%
    14:00 +17°C° 0 mm 2 mps 659 mmHg 47%
    15:00 +17°C° 0 mm 2 mps 658 mmHg 48%
    16:00 +16°C° 0 mm 2 mps 658 mmHg 54%
    17:00 +15°C° 0 mm 2 mps 658 mmHg 61%
    18:00 +14°C° 0 mm 1 mps 657 mmHg 67%
    19:00 +13°C° 0 mm 2 mps 657 mmHg 69%
    20:00 +10°C° 0 mm 2 mps 657 mmHg 70%
    21:00 +9°C° 0 mm 2 mps 657 mmHg 72%
    22:00 +9°C° 0 mm 2 mps 657 mmHg 67%
    23:00 +9°C° 0 mm 2 mps 657 mmHg 61%

    29 April, Monday

    Time Temperature Precipitation Wind Pressure Humidity
    00:00 +9°C° 0 mm 3 mps 657 mmHg 56%
    01:00 +9°C° 0 mm 3 mps 657 mmHg 54%
    02:00 +8°C° 0 mm 3 mps 657 mmHg 53%
    03:00 +8°C° 0 mm 2 mps 657 mmHg 51%
    04:00 +9°C° 0 mm 2 mps 657 mmHg 53%
    05:00 +9°C° 0 mm 2 mps 657 mmHg 55%
    06:00 +9°C° 0 mm 2 mps 658 mmHg 57%
    07:00 +12°C° 0 mm 2 mps 658 mmHg 52%
    08:00 +15°C° 0 mm 2 mps 659 mmHg 48%
    09:00 +17°C° 0 mm 2 mps 659 mmHg 43%
    10:00 +18°C° 0.1 mm 2 mps 659 mmHg 43%
    11:00 +18°C° 0.1 mm 2 mps 659 mmHg 42%
    12:00 +19°C° 0.1 mm 2 mps 659 mmHg 42%
    13:00 +19°C° 0.2 mm 2 mps 659 mmHg 43%
    14:00 +19°C° 0.2 mm 2 mps 658 mmHg 44%
    15:00 +19°C° 0.2 mm 2 mps 658 mmHg 45%
    16:00 +18°C° 0.1 mm 2 mps 658 mmHg 51%
    17:00 +18°C° 0.1 mm 1 mps 657 mmHg 58%
    18:00 +16°C° 0.1 mm 1 mps 657 mmHg 64%
    19:00 +15°C° 0.1 mm 1 mps 657 mmHg 67%
    20:00 +13°C° 0.1 mm 1 mps 657 mmHg 69%
    21:00 +12°C° 0.1 mm 1 mps 658 mmHg 72%
    22:00 +12°C° 0.1 mm 1 mps 658 mmHg 72%
    23:00 +12°C° 0.1 mm 1 mps 658 mmHg 73%
    Show more